Page, AZ

8:45 PM MDT on October 18, 2017 (GMT -0600)
Page Municipal

Weather History for KPGA - February, 2013

Change the Weather History Date:

Sunday, February 10, 2013

  Actual Average Record
Temperature  
Mean Temperature 34 °F -  
Max Temperature 39 °F 47 °F 68 °F (2017)
Min Temperature 28 °F 30 °F 17 °F (1966)
Degree Days  
Heating Degree Days 32    
Moisture  
Dew Point 25 °F    
Average Humidity 77    
Maximum Humidity 93    
Minimum Humidity 41    
Precipitation  
Precipitation 0.08 in - - ()
Sea Level Pressure  
Sea Level Pressure 29.87 in    
Wind  
Wind Speed 7 mph (WSW)    
Max Wind Speed 12 mph    
Max Gust Speed 24 mph    
Visibility 6 miles    
Events Fog , Snow    
Averages and records for this station are not official NWS values.
T = Trace of Precipitation, MM = Missing Value Source: NWS Daily Summary

Daily Weather History Graph

Daily Weather History Graph

Search for Another Location

Airport or City:

Trip Planner

Search our weather history database for the weather conditions in past years. The results will help you decide how hot, cold, wet, or windy it might be!

Date:

Astronomy

Feb. 10, 2013 Rise Set
Actual Time 7:19 AM MST 6:01 PM MST
Civil Twilight 6:52 AM MST 6:27 PM MST
Nautical Twilight 6:22 AM MST 6:58 PM MST
Astronomical Twilight 5:51 AM MST 7:28 PM MST
Moon 7:13 AM MST (2/10) 6:53 PM MST (2/10)
Length of Visible Light 11h 35m
Length of Day
10h 41m
New Moon, 0% of the Moon is Illuminated
Feb 10
New Moon
Feb 17
First Quarter
Feb 25
Full
Mar 4
Last Quarter
Mar 11
New

Hourly Weather History & Observations

Time (MST) Temp. Windchill Dew Point Humidity Pressure Visibility Wind Dir Wind Speed Gust Speed Precip Events Conditions
12:53 AM 39.0 °F 32.3 °F 21.0 °F 49% 29.83 in 10.0 mi West 10.4 mph 18.4 mph N/A   Overcast
1:53 AM 39.0 °F 33.4 °F 19.9 °F 46% 29.81 in 10.0 mi West 8.1 mph 20.7 mph N/A   Overcast
2:53 AM 37.9 °F 31.5 °F 21.0 °F 51% 29.82 in 10.0 mi West 9.2 mph - N/A   Overcast
3:53 AM 37.0 °F 32.4 °F 21.0 °F 52% 29.81 in 10.0 mi West 5.8 mph - N/A   Overcast
4:53 AM 37.0 °F 33.3 °F 21.9 °F 54% 29.81 in 10.0 mi WNW 4.6 mph - N/A   Overcast
5:53 AM 36.0 °F 29.0 °F 21.0 °F 55% 29.83 in 10.0 mi West 9.2 mph - N/A   Mostly Cloudy
6:45 AM 35.6 °F 28.0 °F 21.2 °F 56% 29.84 in 5.0 mi West 10.4 mph - 0.00 in Snow Light Snow
6:53 AM 36.0 °F 29.0 °F 21.0 °F 55% 29.83 in 9.0 mi West 9.2 mph - 0.00 in   Overcast
7:53 AM 35.1 °F 28.6 °F 19.0 °F 52% 29.84 in 10.0 mi WNW 8.1 mph - N/A   Overcast
8:48 AM 32.0 °F 23.0 °F 24.8 °F 75% 29.87 in 1.8 mi West 11.5 mph 24.2 mph 0.00 in Snow Light Snow
8:53 AM 30.9 °F 21.7 °F 25.0 °F 79% 29.87 in 0.8 mi West 11.5 mph 20.7 mph 0.00 in Snow Light Snow
9:07 AM 30.2 °F 22.6 °F 26.6 °F 86% 29.87 in 0.5 mi West 8.1 mph - 0.01 in Fog , Snow Snow
9:17 AM 30.2 °F 22.6 °F 26.6 °F 86% 29.87 in 0.5 mi West 8.1 mph - 0.02 in Fog , Snow Snow
9:53 AM 30.0 °F 23.2 °F 26.1 °F 85% 29.89 in 0.8 mi WNW 6.9 mph - 0.03 in Snow Light Snow
10:15 AM 30.2 °F 25.4 °F 26.6 °F 86% 29.88 in 0.2 mi WNW 4.6 mph - 0.02 in Fog , Snow Heavy Snow
10:24 AM 28.4 °F 20.4 °F 26.6 °F 93% 29.88 in 0.2 mi WNW 8.1 mph 16.1 mph 0.04 in Fog , Snow Heavy Snow
10:53 AM 28.9 °F 21.9 °F 26.1 °F 89% 29.90 in 0.2 mi WNW 6.9 mph - 0.06 in Fog , Snow Snow
11:07 AM 30.2 °F 25.4 °F 26.6 °F 86% 29.89 in 1.0 mi NE 4.6 mph - 0.01 in Snow Light Snow
11:12 AM 30.2 °F 24.3 °F 26.6 °F 86% 29.89 in 1.8 mi NE 5.8 mph - 0.01 in Snow Light Snow
11:15 AM 30.2 °F 24.3 °F 26.6 °F 86% 29.89 in 3.0 mi ENE 5.8 mph - 0.01 in Snow Light Snow
11:19 AM 30.2 °F 24.3 °F 26.6 °F 86% 29.89 in 2.5 mi ENE 5.8 mph - 0.01 in Snow Light Snow
11:22 AM 30.2 °F 24.3 °F 26.6 °F 86% 29.89 in 1.2 mi East 5.8 mph - 0.01 in Snow Light Snow
11:30 AM 28.4 °F 21.2 °F 26.6 °F 93% 29.89 in 0.8 mi East 6.9 mph - 0.01 in Snow Light Snow
11:34 AM 30.2 °F 24.3 °F 26.6 °F 86% 29.88 in 2.0 mi East 5.8 mph - 0.01 in Snow Light Snow
11:41 AM 30.2 °F 24.3 °F 26.6 °F 86% 29.88 in 5.0 mi ESE 5.8 mph - 0.01 in Snow Light Snow
11:53 AM 30.0 °F 25.2 °F 27.0 °F 88% 29.89 in 2.0 mi ESE 4.6 mph - 0.01 in Snow Light Snow
12:01 PM 30.2 °F 25.4 °F 26.6 °F 86% 29.88 in 1.8 mi ESE 4.6 mph - 0.00 in Snow Light Snow
12:09 PM 30.2 °F 23.4 °F 26.6 °F 86% 29.88 in 1.8 mi ESE 6.9 mph - 0.00 in Snow Light Snow
12:44 PM 30.2 °F 24.3 °F 26.6 °F 86% 29.86 in 3.0 mi East 5.8 mph - 0.01 in Snow Light Snow
12:53 PM 30.0 °F 24.1 °F 27.0 °F 88% 29.87 in 4.0 mi ESE 5.8 mph - 0.01 in Snow Light Snow
1:17 PM 30.2 °F 24.3 °F 26.6 °F 86% 29.85 in 10.0 mi ESE 5.8 mph - 0.00 in   Overcast
1:40 PM 30.2 °F 24.3 °F 26.6 °F 86% 29.84 in 10.0 mi East 5.8 mph - 0.00 in   Overcast
1:53 PM 30.9 °F 24.3 °F 28.0 °F 89% 29.85 in 10.0 mi SE 6.9 mph - 0.00 in   Overcast
2:11 PM 32.0 °F 24.8 °F 26.6 °F 80% 29.84 in 10.0 mi SE 8.1 mph - N/A   Mostly Cloudy
2:53 PM 33.1 °F 26.9 °F 27.0 °F 78% 29.83 in 10.0 mi ESE 6.9 mph - N/A   Mostly Cloudy
3:53 PM 35.1 °F 30.1 °F 26.1 °F 70% 29.84 in 10.0 mi SE 5.8 mph - N/A   Mostly Cloudy
4:53 PM 35.1 °F 28.6 °F 26.1 °F 70% 29.85 in 10.0 mi SE 8.1 mph - N/A   Mostly Cloudy
5:53 PM 33.1 °F - 25.0 °F 72% 29.87 in 10.0 mi Calm Calm - 0.00 in   Overcast
6:14 PM 32.0 °F 25.6 °F 28.4 °F 87% 29.87 in 2.5 mi NNW 6.9 mph - 0.00 in Snow Light Snow
6:22 PM 32.0 °F 26.4 °F 28.4 °F 87% 29.87 in 1.2 mi NW 5.8 mph - 0.00 in Snow Light Snow
6:32 PM 30.2 °F - 28.4 °F 93% 29.87 in 0.8 mi Calm Calm - 0.00 in Snow Light Snow
6:39 PM 30.2 °F - 28.4 °F 93% 29.87 in 2.5 mi Calm Calm - 0.01 in Snow Light Snow
6:44 PM 30.2 °F 25.4 °F 28.4 °F 93% 29.87 in 6.0 mi SSE 4.6 mph - 0.01 in Snow Light Snow
6:53 PM 30.9 °F 27.5 °F 28.0 °F 89% 29.89 in 10.0 mi SSE 3.5 mph - 0.01 in   Overcast
7:53 PM 32.0 °F 26.4 °F 27.0 °F 82% 29.90 in 10.0 mi SSW 5.8 mph - N/A   Overcast
8:53 PM 33.1 °F 30.0 °F 26.1 °F 75% 29.94 in 10.0 mi WNW 3.5 mph - N/A   Overcast
9:53 PM 30.9 °F - 26.1 °F 82% 29.95 in 10.0 mi Calm Calm - N/A   Partly Cloudy
10:53 PM 30.9 °F - 24.1 °F 76% 29.96 in 10.0 mi Calm Calm - N/A   Clear
11:53 PM 32.0 °F 27.5 °F 19.9 °F 61% 29.96 in 8.0 mi WNW 4.6 mph - N/A   Overcast